KF0ZH Weather Reports


Display with metric or nautical units.
time (UTC)temp
F
wind
direction
speed
MPH
gust
MPH
rain 1hr
in
rain 24hr
in
rain mn
in
humidity
%
barometer
mb
20260506132157 38 316 0.0 6.0 0.00 0.00 0.00 71 1016.4
20260506131657 38 307 6.0 7.0 0.00 0.00 0.00 72 1016.3
20260506131158 38 322 0.0 7.0 0.00 0.00 0.00 72 1016.2
20260506130657 38 315 0.0 10.0 0.00 0.00 0.00 72 1016.1
20260506130157 38 329 5.0 9.0 0.00 0.00 0.00 73 1016.1
20260506125657 38 347 0.0 11.0 0.00 0.00 0.00 77 1016.0
20260506125204 38 285 0.0 3.0 0.00 0.00 0.00 79 1015.9
20260506124700 37 322 0.0 4.0 0.00 0.00 0.00 80 1015.9
20260506123656 37 247 0.0 0.0 0.00 0.00 0.00 83 1015.8
20260506123156 36 188 0.0 0.0 0.00 0.00 0.00 84 1015.8
20260506122656 36 261 0.0 0.0 0.00 0.00 0.00 85 1015.7
20260506122306 36 261 0.0 0.0 0.00 0.00 0.00 86 1015.6
20260506122157 36 261 0.0 0.0 0.00 0.00 0.00 86 1015.6
20260506120657 35 219 0.0 0.0 0.00 0.00 0.00 87 1015.3
20260506120158 34 292 0.0 0.0 0.00 0.00 0.00 88 1015.3
20260506115657 33 292 0.0 0.0 0.00 0.00 0.00 89 1015.2
20260506115204 33 299 0.0 0.0 0.00 0.00 0.00 90 1015.1
20260506114156 32 299 0.0 0.0 0.00 0.00 0.00 91 1014.8
20260506113657 32 299 0.0 0.0 0.00 0.00 0.00 91 1014.8
20260506113156 32 299 0.0 0.0 0.00 0.00 0.00 91 1014.7
20260506112656 31 299 0.0 0.0 0.00 0.00 0.00 91 1014.6
20260506112156 31 299 0.0 0.0 0.00 0.00 0.00 91 1014.6
20260506110656 31 299 0.0 0.0 0.00 0.00 0.00 90 1014.4
20260506105656 31 299 0.0 0.0 0.00 0.00 0.00 90 1014.6
20260506105156 31 299 0.0 0.0 0.00 0.00 0.00 90 1014.7
20260506104656 31 299 0.0 0.0 0.00 0.00 0.00 91 1014.7
20260506104156 31 299 0.0 0.0 0.00 0.00 0.00 91 1014.7
20260506103656 31 299 0.0 0.0 0.00 0.00 0.00 91 1014.7
20260506102657 31 299 0.0 0.0 0.00 0.00 0.00 91 1014.6
20260506102158 31 299 0.0 0.0 0.00 0.00 0.00 90 1014.5
20260506101656 31 299 0.0 0.0 0.00 0.00 0.00 90 1014.5
20260506101156 32 299 0.0 0.0 0.00 0.00 0.00 90 1014.3
20260506100656 31 299 0.0 0.0 0.00 0.00 0.00 90 1014.3
20260506100156 31 299 0.0 0.0 0.00 0.00 0.00 89 1014.2
20260506095656 31 299 0.0 0.0 0.00 0.00 0.00 88 1014.2
20260506095156 31 299 0.0 0.0 0.00 0.00 0.00 88 1014.2
20260506094656 31 299 0.0 0.0 0.00 0.00 0.00 88 1014.2
20260506094156 31 299 0.0 0.0 0.00 0.00 0.00 88 1014.1
20260506093656 32 299 0.0 0.0 0.00 0.00 0.00 87 1014.1
20260506093156 31 299 0.0 0.0 0.00 0.00 0.00 87 1014.1
20260506092656 32 299 0.0 0.0 0.00 0.00 0.00 86 1014.1
20260506092250 31 299 0.0 0.0 0.00 0.00 0.00 85 1014.0
20260506092203 31 299 0.0 0.0 0.00 0.00 0.00 85 1014.0
20260506091656 32 299 0.0 0.0 0.00 0.00 0.00 85 1014.1
20260506091156 32 299 0.0 0.0 0.00 0.00 0.00 84 1014.1
20260506090656 33 299 0.0 0.0 0.00 0.00 0.00 84 1014.1
20260506090156 33 299 0.0 0.0 0.00 0.00 0.00 84 1014.2
20260506085656 32 299 0.0 0.0 0.00 0.00 0.00 83 1014.1
20260506085156 33 299 0.0 0.0 0.00 0.00 0.00 83 1014.0
20260506084656 33 299 0.0 0.0 0.00 0.00 0.00 82 1013.9
20260506084156 33 299 0.0 0.0 0.00 0.00 0.00 81 1013.7
20260506083656 33 299 0.0 0.0 0.00 0.00 0.00 80 1013.6
20260506083159 34 299 0.0 0.0 0.00 0.00 0.00 79 1013.6
20260506082656 34 299 0.0 0.0 0.00 0.00 0.00 79 1013.5
20260506082203 34 299 0.0 0.0 0.00 0.00 0.00 78 1013.6
20260506081656 34 299 0.0 0.0 0.00 0.00 0.00 78 1013.6
20260506081156 34 299 0.0 0.0 0.00 0.00 0.00 77 1013.7
20260506080656 35 299 0.0 0.0 0.00 0.00 0.00 76 1013.8
20260506073157 37 299 0.0 0.0 0.00 0.00 0.00 72 1013.4
20260506072656 38 299 0.0 0.0 0.00 0.00 0.00 72 1013.3
20260506072203 38 299 0.0 0.0 0.00 0.00 0.00 72 1013.2
20260506071656 38 299 3.0 8.0 0.00 0.00 0.00 72 1013.2
20260506071156 38 341 0.0 0.0 0.00 0.00 0.00 72 1013.2
20260506070656 38 341 0.0 3.0 0.00 0.00 0.00 71 1013.2
20260506070156 38 323 0.0 0.0 0.00 0.00 0.00 71 1013.3
20260506062156 39 289 0.0 0.0 0.00 0.00 0.00 70 1013.3
20260506061656 39 358 0.0 0.0 0.00 0.00 0.00 70 1013.2
20260506061156 39 333 0.0 3.0 0.00 0.00 0.00 70 1013.2
20260506060656 39 324 0.0 6.0 0.00 0.00 0.00 69 1013.2
20260506060158 39 340 4.0 9.0 0.00 0.00 0.00 69 1013.2
20260506051157 40 288 0.0 3.0 0.00 0.00 0.00 68 1012.7
20260506050659 40 275 0.0 0.0 0.00 0.00 0.00 68 1012.6
20260506050156 41 272 5.0 5.0 0.00 0.00 0.00 68 1012.5
20260506044656 41 289 0.0 0.0 0.00 0.00 0.00 67 1012.4
20260506044156 41 289 0.0 0.0 0.00 0.00 0.00 67 1012.4
20260506043656 41 289 4.0 5.0 0.00 0.00 0.00 66 1012.4
20260506043156 41 324 0.0 8.0 0.00 0.00 0.00 66 1012.4
20260506042655 41 354 4.0 9.0 0.00 0.00 0.00 66 1012.4
20260506041655 42 326 5.0 12.0 0.00 0.00 0.00 66 1012.3
20260506041155 42 326 0.0 5.0 0.00 0.00 0.00 67 1012.3
20260506040656 42 331 0.0 0.0 0.00 0.00 0.00 67 1012.3
20260506040155 42 331 0.0 0.0 0.00 0.00 0.00 67 1012.3
20260506035655 42 337 4.0 4.0 0.00 0.00 0.00 67 1012.3
20260506035230 42 277 0.0 5.0 0.00 0.00 0.00 67 1012.2
20260506035156 42 277 0.0 5.0 0.00 0.00 0.00 67 1012.2
20260506034656 42 343 3.0 7.0 0.00 0.00 0.00 67 1012.2
20260506034156 43 317 0.0 5.0 0.00 0.00 0.00 66 1012.2
20260506033656 43 345 0.0 8.0 0.00 0.00 0.00 66 1012.1
20260506033155 43 340 0.0 8.0 0.00 0.00 0.00 65 1012.1
20260506032655 43 254 2.0 7.0 0.00 0.00 0.00 66 1012.0
20260506032156 43 315 0.0 13.0 0.00 0.00 0.00 65 1012.0
20260506031655 43 322 4.0 4.0 0.00 0.00 0.00 65 1011.9
20260506031155 43 322 6.0 8.0 0.00 0.00 0.00 65 1011.9
20260506030655 43 337 7.0 7.0 0.00 0.00 0.00 65 1011.9
20260506030155 44 315 0.0 4.0 0.00 0.00 0.00 64 1011.8
20260506025655 44 317 8.0 13.0 0.00 0.00 0.00 64 1011.7
20260506025156 44 293 0.0 0.0 0.00 0.00 0.00 63 1011.7
20260506024656 44 293 0.0 0.0 0.00 0.00 0.00 63 1011.5
20260506024156 44 293 0.0 8.0 0.00 0.00 0.00 62 1011.4
20260506023657 44 286 0.0 13.0 0.00 0.00 0.00 62 1011.2
20260506023157 44 312 0.0 7.0 0.00 0.00 0.00 62 1011.1
20260506022655 45 323 6.0 11.0 0.00 0.00 0.00 62 1011.0
20260506022158 45 320 2.0 7.0 0.00 0.00 0.00 61 1011.0
20260506021656 45 289 0.0 0.0 0.00 0.00 0.00 60 1010.9
20260506021156 45 289 0.0 0.0 0.00 0.00 0.00 60 1010.9
20260506020655 45 306 0.0 5.0 0.00 0.00 0.00 60 1010.8
20260506020155 45 345 0.0 5.0 0.00 0.00 0.00 59 1010.7
20260506015655 45 323 0.0 8.0 0.00 0.00 0.00 59 1010.5
20260506015158 46 324 0.0 4.0 0.00 0.00 0.00 59 1010.4
20260506014657 46 309 0.0 8.0 0.00 0.00 0.00 58 1010.4
20260506014155 46 298 0.0 3.0 0.00 0.00 0.00 58 1010.4
20260506013655 46 317 4.0 7.0 0.00 0.00 0.00 57 1010.3
20260506012656 47 337 0.0 0.0 0.00 0.00 0.00 58 1010.2
20260506012157 47 272 0.0 0.0 0.00 0.00 0.00 57 1010.1
20260506011655 47 331 0.0 8.0 0.00 0.00 0.00 57 1010.0
20260506011155 47 312 7.0 15.0 0.00 0.00 0.00 56 1010.0
20260506010656 47 320 0.0 9.0 0.00 0.00 0.00 56 1009.9
20260506010156 47 303 1.0 12.0 0.00 0.00 0.00 56 1009.8
20260506005655 48 326 11.0 17.0 0.00 0.00 0.00 55 1009.8
20260506005156 48 320 4.0 4.0 0.00 0.00 0.00 55 1009.7
20260506004655 48 317 0.0 13.0 0.00 0.00 0.00 54 1009.7
20260506004156 48 292 9.0 11.0 0.00 0.00 0.00 54 1009.6
20260506003155 48 358 5.0 9.0 0.00 0.00 0.00 55 1009.5
20260506002655 48 337 11.0 18.0 0.00 0.00 0.00 55 1009.5
20260506002156 48 323 0.0 10.0 0.00 0.00 0.00 55 1009.4
20260506001656 48 309 6.0 10.0 0.00 0.00 0.00 54 1009.3
20260506001156 48 334 0.0 10.0 0.00 0.00 0.00 54 1009.2
20260506000657 48 299 8.0 11.0 0.00 0.00 0.00 54 1009.1
20260505235158 49 337 0.0 5.0 0.00 0.00 0.00 54 1009.2
20260505234657 49 340 4.0 8.0 0.00 0.00 0.00 54 1009.2
20260505234157 49 258 0.0 9.0 0.00 0.00 0.00 53 1009.2
20260505233657 49 330 6.0 8.0 0.00 0.00 0.00 53 1009.2
20260505233157 50 261 7.0 10.0 0.00 0.00 0.00 52 1009.3
20260505232158 50 298 5.0 6.0 0.00 0.00 0.00 52 1009.3
20260505231657 50 278 0.0 11.0 0.00 0.00 0.00 51 1009.3
20260505231157 50 255 1.0 11.0 0.00 0.00 0.00 52 1009.4
20260505230659 50 285 6.0 8.0 0.00 0.00 0.00 53 1009.4
20260505230157 49 288 5.0 5.0 0.00 0.00 0.00 53 1009.3
20260505225158 49 278 10.0 14.0 0.00 0.00 0.00 52 1009.3
20260505224657 49 307 3.0 10.0 0.00 0.00 0.00 53 1009.3
20260505224157 49 316 6.0 15.0 0.00 0.00 0.00 52 1009.2
20260505223657 49 268 4.0 14.0 0.00 0.00 0.00 52 1009.4
20260505223158 50 320 4.0 13.0 0.00 0.00 0.00 53 1009.3
20260505222157 50 302 0.0 8.0 0.00 0.00 0.00 53 1009.2
20260505221656 50 267 7.0 14.0 0.00 0.00 0.00 52 1009.3
20260505221156 50 322 5.0 12.0 0.00 0.00 0.00 53 1009.3
20260505220656 49 334 6.0 10.0 0.00 0.00 0.00 53 1009.2
20260505220156 50 322 10.0 14.0 0.00 0.00 0.00 52 1009.3
20260505215157 50 286 5.0 7.0 0.00 0.00 0.00 52 1009.3
20260505214656 50 248 5.0 13.0 0.00 0.00 0.00 52 1009.4
20260505214156 50 303 3.0 12.0 0.00 0.00 0.00 51 1009.4
20260505213656 50 338 6.0 7.0 0.00 0.00 0.00 52 1009.5
20260505213156 51 261 5.0 11.0 0.00 0.00 0.00 51 1009.4
20260505212157 50 309 0.0 12.0 0.00 0.00 0.00 51 1009.5
20260505211657 50 319 5.0 8.0 0.00 0.00 0.00 52 1009.4
20260505211157 50 265 0.0 6.0 0.00 0.00 0.00 52 1009.5
20260505210657 50 282 4.0 9.0 0.00 0.00 0.00 52 1009.6
20260505210158 50 288 6.0 14.0 0.00 0.00 0.00 52 1009.6
20260505205206 50 298 8.0 17.0 0.00 0.00 0.00 51 1009.6
20260505204657 50 274 0.0 10.0 0.00 0.00 0.00 52 1009.5
20260505204158 50 302 0.0 6.0 0.00 0.00 0.00 52 1009.5
20260505203157 50 188 2.0 15.0 0.00 0.00 0.00 51 1009.5
20260505202658 51 309 8.0 10.0 0.00 0.00 0.00 50 1009.6
20260505202158 50 309 6.0 10.0 0.00 0.00 0.00 51 1009.6
20260505201657 50 348 0.0 8.0 0.00 0.00 0.00 53 1009.6
20260505201157 49 270 5.0 11.0 0.00 0.00 0.00 53 1009.7
20260505200657 50 312 9.0 9.0 0.00 0.00 0.00 52 1009.7
20260505200158 49 298 3.0 14.0 0.00 0.00 0.00 52 1009.7
20260505195658 49 247 0.0 2.0 0.00 0.00 0.00 54 1009.7
20260505195159 49 288 8.0 11.0 0.00 0.00 0.00 53 1009.7
20260505194657 49 315 3.0 12.0 0.00 0.00 0.00 53 1009.7
20260505194156 49 260 5.0 18.0 0.00 0.00 0.00 53 1009.8
20260505193656 49 251 0.0 11.0 0.00 0.00 0.00 54 1009.7
20260505193156 49 22 6.0 13.0 0.00 0.00 0.00 53 1009.7
20260505192659 49 293 12.0 12.0 0.00 0.00 0.00 53 1009.7
20260505192200 49 284 3.0 15.0 0.00 0.00 0.00 53 1009.7
20260505191656 49 312 8.0 16.0 0.00 0.00 0.00 53 1009.7
20260505191204 50 326 5.0 10.0 0.00 0.00 0.00 53 1009.7
20260505190657 50 286 3.0 7.0 0.00 0.00 0.00 53 1009.7
20260505190157 49 268 0.0 10.0 0.00 0.00 0.00 54 1009.8
20260505185656 49 223 9.0 13.0 0.00 0.00 0.00 53 1009.8
20260505185306 50 285 4.0 9.0 0.00 0.00 0.00 52 1009.8
20260505185159 50 285 4.0 9.0 0.00 0.00 0.00 52 1009.8
20260505184657 50 267 10.0 10.0 0.00 0.00 0.00 54 1009.8
20260505184156 50 250 5.0 11.0 0.00 0.00 0.00 53 1009.8
20260505183657 50 258 2.0 17.0 0.00 0.00 0.00 53 1009.8
20260505183157 49 272 5.0 15.0 0.00 0.00 0.00 54 1009.7
20260505182657 50 305 12.0 15.0 0.00 0.00 0.00 52 1009.8
20260505182201 50 358 3.0 8.0 0.00 0.00 0.00 52 1009.8
20260505181704 49 234 0.0 11.0 0.00 0.00 0.00 54 1009.8
20260505181157 49 285 7.0 13.0 0.00 0.00 0.00 52 1009.8
20260505180656 50 277 5.0 12.0 0.00 0.00 0.00 52 1009.8
20260505180156 49 293 0.0 7.0 0.00 0.00 0.00 53 1009.8
20260505175157 49 337 9.0 12.0 0.00 0.00 0.00 53 1009.8
20260505174157 49 4 5.0 11.0 0.00 0.00 0.00 53 1009.8
20260505173657 49 329 6.0 13.0 0.00 0.00 0.00 52 1009.8
20260505172657 48 258 2.0 9.0 0.00 0.00 0.00 55 1009.9
20260505172158 48 279 0.0 12.0 0.00 0.00 0.00 53 1009.9
20260505171658 48 299 4.0 12.0 0.00 0.00 0.00 53 1010.0
20260505171156 48 319 7.0 12.0 0.00 0.00 0.00 52 1009.9
20260505170659 48 223 0.0 7.0 0.00 0.00 0.00 53 1010.0
20260505170158 48 323 8.0 12.0 0.00 0.00 0.00 52 1010.0
20260505165656 48 291 5.0 11.0 0.00 0.00 0.00 52 1010.0
20260505165157 47 300 6.0 15.0 0.00 0.00 0.00 54 1010.0
20260505164656 47 310 0.0 9.0 0.00 0.00 0.00 54 1010.0
20260505163656 47 258 3.0 10.0 0.00 0.00 0.00 54 1010.0
20260505163156 47 237 6.0 8.0 0.00 0.00 0.00 54 1010.0
20260505162658 47 317 0.0 9.0 0.00 0.00 0.00 56 1010.0
20260505162158 46 322 0.0 6.0 0.00 0.00 0.00 56 1010.1
20260505161657 46 331 9.0 13.0 0.00 0.00 0.00 55 1010.1
20260505161156 47 243 4.0 15.0 0.00 0.00 0.00 55 1010.1
20260505160656 47 354 5.0 15.0 0.00 0.00 0.00 54 1009.9
20260505153157 46 272 0.0 9.0 0.00 0.00 0.00 57 1010.0
20260505152158 45 277 3.0 13.0 0.00 0.00 0.00 56 1010.1
20260505151157 45 334 0.0 8.0 0.00 0.00 0.00 58 1010.0
20260505150656 45 345 8.0 13.0 0.00 0.00 0.00 57 1010.1
20260505150156 45 343 7.0 10.0 0.00 0.00 0.00 58 1010.0